GS63A EGPH-EGPR

Flight info

Callsign GS63A
Flight time 1h 12m
Altitude 5000
Route GRICE CLYDE L602 BRUCE DCT TIR ETRIP
Aircraft DHC6/L-SDFGR/C

Departure

Time 2026-04-21 16:28
Airport Edinburgh Airport (EGPH)

Arrival

Time 2026-04-21 17:40
Airport Barra Airport (EGPR)
Time Latitude Longitude Altitude Speed Heading
2026-04-21 16:14 55.94706 -3.35370 105 ft 0 kts 208°
2026-04-21 16:17 55.94732 -3.35346 105 ft 4 kts 209°
2026-04-21 16:17 55.94764 -3.35313 106 ft 10 kts 210°
2026-04-21 16:17 55.94769 -3.35317 106 ft 4 kts 274°
2026-04-21 16:18 55.94771 -3.35331 106 ft 0 kts 285°
2026-04-21 16:19 55.94772 -3.35338 106 ft 2 kts 291°
2026-04-21 16:19 55.94791 -3.35398 106 ft 8 kts 304°
2026-04-21 16:19 55.94828 -3.35504 105 ft 11 kts 296°
2026-04-21 16:19 55.94871 -3.35655 103 ft 15 kts 299°
2026-04-21 16:20 55.94924 -3.35826 102 ft 16 kts 311°
2026-04-21 16:20 55.95015 -3.35834 102 ft 12 kts 30°
2026-04-21 16:20 55.95085 -3.35794 101 ft 10 kts 335°
2026-04-21 16:20 55.95139 -3.35902 100 ft 13 kts 313°
2026-04-21 16:21 55.95212 -3.36028 99 ft 15 kts 271°
2026-04-21 16:21 55.95158 -3.36206 99 ft 17 kts 238°
2026-04-21 16:21 55.95092 -3.36403 99 ft 18 kts 240°
2026-04-21 16:21 55.95023 -3.36606 98 ft 19 kts 238°
2026-04-21 16:22 55.94950 -3.36825 97 ft 21 kts 241°
2026-04-21 16:22 55.94872 -3.37049 98 ft 21 kts 240°
2026-04-21 16:22 55.94798 -3.37270 98 ft 20 kts 238°
2026-04-21 16:22 55.94723 -3.37497 98 ft 21 kts 241°
2026-04-21 16:23 55.94649 -3.37716 99 ft 20 kts 237°
2026-04-21 16:23 55.94576 -3.37927 102 ft 19 kts 238°
2026-04-21 16:23 55.94506 -3.38129 105 ft 18 kts 240°
2026-04-21 16:23 55.94440 -3.38328 107 ft 18 kts 239°
2026-04-21 16:24 55.94374 -3.38529 108 ft 19 kts 239°
2026-04-21 16:24 55.94319 -3.38685 109 ft 0 kts 236°
2026-04-21 16:25 55.94313 -3.38700 110 ft 5 kts 236°
2026-04-21 16:26 55.94281 -3.38804 112 ft 12 kts 257°
2026-04-21 16:26 55.94321 -3.38905 111 ft 0 kts 327°
2026-04-21 16:26 55.94322 -3.38905 111 ft 0 kts 327°
2026-04-21 16:27 55.94401 -3.38965 110 ft 19 kts 11°
2026-04-21 16:27 55.94472 -3.38815 108 ft 13 kts 57°
2026-04-21 16:27 55.94515 -3.38687 106 ft 10 kts 59°
2026-04-21 16:28 55.94577 -3.38501 105 ft 52 kts 61°
2026-04-21 16:28 55.94818 -3.37750 657 ft 67 kts 66°
2026-04-21 16:28 55.94999 -3.36826 1122 ft 86 kts 72°
2026-04-21 16:28 55.95155 -3.35837 1741 ft 87 kts 66°
2026-04-21 16:29 55.95435 -3.35355 2156 ft 92 kts 35°
2026-04-21 16:29 55.96316 -3.35600 2933 ft 115 kts 332°
2026-04-21 16:29 55.96728 -3.36844 3506 ft 127 kts 285°
2026-04-21 16:29 55.96597 -3.38363 4062 ft 129 kts 239°
2026-04-21 16:30 55.95981 -3.39404 4629 ft 122 kts 202°
2026-04-21 16:30 55.95244 -3.40131 5116 ft 129 kts 200°
2026-04-21 16:30 55.94384 -3.40939 5211 ft 145 kts 201°
2026-04-21 16:30 55.93531 -3.41988 5216 ft 158 kts 221°
2026-04-21 16:31 55.92834 -3.43602 5213 ft 166 kts 232°
2026-04-21 16:31 55.92200 -3.45363 5211 ft 170 kts 235°
2026-04-21 16:31 55.91578 -3.47157 5211 ft 172 kts 235°
2026-04-21 16:31 55.90949 -3.48982 5209 ft 174 kts 235°
2026-04-21 16:32 55.90332 -3.50843 5202 ft 175 kts 243°
2026-04-21 16:32 55.90241 -3.53007 5059 ft 183 kts 287°
2026-04-21 16:32 55.90936 -3.54788 4993 ft 172 kts 331°
2026-04-21 16:32 55.92008 -3.55265 4985 ft 154 kts 15°
2026-04-21 16:33 55.92954 -3.54581 4991 ft 146 kts 34°
2026-04-21 16:33 55.93836 -3.53711 4994 ft 144 kts 36°
2026-04-21 16:33 55.94717 -3.52830 4995 ft 144 kts 36°
2026-04-21 16:33 55.95583 -3.51962 4994 ft 144 kts 36°
2026-04-21 16:34 55.96498 -3.51190 4987 ft 150 kts 17°
2026-04-21 16:34 55.97535 -3.51637 4992 ft 165 kts 332°
2026-04-21 16:34 55.98185 -3.53337 4992 ft 175 kts 288°
2026-04-21 16:34 55.98311 -3.55505 4996 ft 176 kts 273°
2026-04-21 16:35 55.98322 -3.57702 4992 ft 177 kts 271°
2026-04-21 16:35 55.98309 -3.59867 4994 ft 177 kts 270°
2026-04-21 16:35 55.98286 -3.62051 4996 ft 177 kts 270°
2026-04-21 16:35 55.98261 -3.64258 4995 ft 177 kts 270°
2026-04-21 16:36 55.98235 -3.66434 4995 ft 177 kts 269°
2026-04-21 16:36 55.98208 -3.68645 4991 ft 177 kts 269°
2026-04-21 16:36 55.98181 -3.70830 4987 ft 177 kts 269°
2026-04-21 16:36 55.98154 -3.73046 4986 ft 177 kts 269°
2026-04-21 16:37 55.98125 -3.75233 4987 ft 177 kts 269°
2026-04-21 16:37 55.98096 -3.77435 4986 ft 177 kts 268°
2026-04-21 16:37 55.98067 -3.79613 4983 ft 177 kts 269°
2026-04-21 16:37 55.98038 -3.81802 4985 ft 177 kts 269°
2026-04-21 16:38 55.98009 -3.83991 4978 ft 177 kts 269°
2026-04-21 16:38 55.97978 -3.86214 4972 ft 178 kts 269°
2026-04-21 16:38 55.97948 -3.88411 4971 ft 178 kts 269°
2026-04-21 16:38 55.97917 -3.90618 4969 ft 178 kts 269°
2026-04-21 16:39 55.97885 -3.92830 4965 ft 178 kts 269°
2026-04-21 16:39 55.97853 -3.95037 4966 ft 178 kts 269°
2026-04-21 16:39 55.97821 -3.97252 4966 ft 178 kts 269°
2026-04-21 16:39 55.97788 -3.99446 4963 ft 178 kts 269°
2026-04-21 16:40 55.97755 -4.01645 4963 ft 178 kts 269°
2026-04-21 16:40 55.97722 -4.03850 4963 ft 178 kts 269°
2026-04-21 16:40 55.97688 -4.06071 4962 ft 178 kts 269°
2026-04-21 16:40 55.97654 -4.08272 4963 ft 178 kts 269°
2026-04-21 16:41 55.97631 -4.09740 4967 ft 178 kts 269°
2026-04-21 16:41 55.97584 -4.12689 4971 ft 178 kts 268°
2026-04-21 16:41 55.97549 -4.14891 4971 ft 178 kts 268°
2026-04-21 16:41 55.97512 -4.17088 4969 ft 178 kts 268°
2026-04-21 16:42 55.97476 -4.19285 4962 ft 178 kts 268°
2026-04-21 16:42 55.97439 -4.21497 4965 ft 178 kts 268°
2026-04-21 16:42 55.97401 -4.23731 4964 ft 178 kts 269°
2026-04-21 16:42 55.97363 -4.25911 4964 ft 178 kts 269°
2026-04-21 16:43 55.97324 -4.28138 4970 ft 178 kts 269°
2026-04-21 16:43 55.97286 -4.30317 4972 ft 178 kts 269°
2026-04-21 16:43 55.97246 -4.32539 4965 ft 179 kts 268°
2026-04-21 16:43 55.97207 -4.34753 4960 ft 179 kts 268°
2026-04-21 16:44 55.97167 -4.36974 4965 ft 178 kts 268°
2026-04-21 16:44 55.97127 -4.39187 4965 ft 179 kts 268°
2026-04-21 16:44 55.97087 -4.41399 4967 ft 179 kts 268°
2026-04-21 16:44 55.97046 -4.43607 4961 ft 178 kts 268°
2026-04-21 16:45 55.97005 -4.45824 4968 ft 178 kts 268°
2026-04-21 16:45 55.96963 -4.48045 4970 ft 178 kts 268°
2026-04-21 16:45 55.96921 -4.50254 4971 ft 179 kts 268°
2026-04-21 16:45 55.96878 -4.52473 4966 ft 179 kts 268°
2026-04-21 16:46 55.96836 -4.54686 4964 ft 179 kts 268°
2026-04-21 16:46 55.96794 -4.56906 4963 ft 179 kts 270°
2026-04-21 16:46 55.96749 -4.59111 4961 ft 178 kts 268°
2026-04-21 16:46 55.96705 -4.61327 4964 ft 179 kts 268°
2026-04-21 16:47 55.96661 -4.63542 4964 ft 179 kts 268°
2026-04-21 16:47 55.96617 -4.65750 4968 ft 179 kts 267°
2026-04-21 16:47 55.96571 -4.67983 4962 ft 179 kts 267°
2026-04-21 16:47 55.96526 -4.70185 4958 ft 179 kts 267°
2026-04-21 16:48 55.96479 -4.72416 4965 ft 178 kts 267°
2026-04-21 16:48 55.96434 -4.74603 4968 ft 178 kts 267°
2026-04-21 16:48 55.96387 -4.76821 4964 ft 179 kts 267°
2026-04-21 16:48 55.96386 -4.79027 4953 ft 179 kts 281°
2026-04-21 16:49 55.96827 -4.81087 4960 ft 176 kts 298°
2026-04-21 16:49 55.97348 -4.83044 4963 ft 176 kts 298°
2026-04-21 16:49 55.97876 -4.85018 4967 ft 176 kts 298°
2026-04-21 16:49 55.98401 -4.86982 4968 ft 176 kts 298°
2026-04-21 16:50 55.98931 -4.88978 4968 ft 176 kts 298°
2026-04-21 16:50 55.99453 -4.90943 4968 ft 177 kts 298°
2026-04-21 16:50 55.99983 -4.92942 4967 ft 177 kts 298°
2026-04-21 16:50 56.00506 -4.94917 4967 ft 177 kts 298°
2026-04-21 16:51 56.01029 -4.96896 4967 ft 177 kts 298°
2026-04-21 16:51 56.01557 -4.98894 4967 ft 177 kts 298°
2026-04-21 16:51 56.02079 -5.00871 4961 ft 177 kts 298°
2026-04-21 16:51 56.02609 -5.02880 4954 ft 178 kts 298°
2026-04-21 16:52 56.03133 -5.04870 4946 ft 178 kts 298°
2026-04-21 16:52 56.03658 -5.06865 4943 ft 178 kts 298°
2026-04-21 16:52 56.04011 -5.08209 4945 ft 177 kts 298°
2026-04-21 16:52 56.04710 -5.10867 4943 ft 177 kts 298°
2026-04-21 16:53 56.05231 -5.12856 4943 ft 178 kts 298°
2026-04-21 16:53 56.05754 -5.14846 4942 ft 178 kts 298°
2026-04-21 16:53 56.06282 -5.16861 4940 ft 178 kts 298°
2026-04-21 16:53 56.06806 -5.18862 4938 ft 178 kts 297°
2026-04-21 16:54 56.07328 -5.20860 4936 ft 177 kts 297°
2026-04-21 16:54 56.07849 -5.22856 4935 ft 177 kts 298°
2026-04-21 16:54 56.08362 -5.24821 4934 ft 177 kts 298°
2026-04-21 16:54 56.08881 -5.26809 4934 ft 176 kts 298°
2026-04-21 16:55 56.09398 -5.28793 4936 ft 176 kts 298°
2026-04-21 16:55 56.09919 -5.30794 4935 ft 176 kts 298°
2026-04-21 16:55 56.10440 -5.32796 4938 ft 176 kts 298°
2026-04-21 16:55 56.10955 -5.34778 4938 ft 176 kts 298°
2026-04-21 16:56 56.11470 -5.36759 4940 ft 177 kts 298°
2026-04-21 16:56 56.11989 -5.38761 4940 ft 177 kts 297°
2026-04-21 16:56 56.12505 -5.40753 4942 ft 176 kts 297°
2026-04-21 16:56 56.13021 -5.42745 4944 ft 176 kts 297°
2026-04-21 16:57 56.13535 -5.44730 4947 ft 176 kts 297°
2026-04-21 16:57 56.14045 -5.46732 4950 ft 176 kts 294°
2026-04-21 16:57 56.14162 -5.48901 4952 ft 176 kts 268°
2026-04-21 16:57 56.14137 -5.51110 4948 ft 177 kts 275°
2026-04-21 16:58 56.14642 -5.53029 4951 ft 172 kts 315°
2026-04-21 16:58 56.15411 -5.54656 4833 ft 173 kts 313°
2026-04-21 16:58 56.16110 -5.56400 4723 ft 173 kts 308°
2026-04-21 16:58 56.16751 -5.58255 4597 ft 174 kts 304°
2026-04-21 16:59 56.17337 -5.60138 4501 ft 173 kts 302°
2026-04-21 16:59 56.17892 -5.62047 4370 ft 174 kts 300°
2026-04-21 16:59 56.18430 -5.63987 4273 ft 173 kts 299°
2026-04-21 16:59 56.18953 -5.65930 4154 ft 173 kts 298°
2026-04-21 17:00 56.19467 -5.67878 4041 ft 173 kts 297°
2026-04-21 17:00 56.19973 -5.69818 3960 ft 171 kts 297°
2026-04-21 17:00 56.20303 -5.71094 3950 ft 168 kts 297°
2026-04-21 17:00 56.20948 -5.73599 3949 ft 163 kts 297°
2026-04-21 17:01 56.21413 -5.75414 3946 ft 161 kts 297°
2026-04-21 17:01 56.21886 -5.77262 3941 ft 161 kts 297°
2026-04-21 17:01 56.22351 -5.79080 3940 ft 161 kts 297°
2026-04-21 17:01 56.22816 -5.80908 3942 ft 160 kts 297°
2026-04-21 17:02 56.23278 -5.82721 3944 ft 160 kts 297°
2026-04-21 17:02 56.23704 -5.84574 3939 ft 161 kts 283°
2026-04-21 17:02 56.23851 -5.86537 3943 ft 159 kts 290°
2026-04-21 17:02 56.24255 -5.88387 3951 ft 159 kts 295°
2026-04-21 17:03 56.24693 -5.90228 3951 ft 159 kts 296°
2026-04-21 17:03 56.25132 -5.92030 3950 ft 159 kts 296°
2026-04-21 17:03 56.25584 -5.93859 3951 ft 159 kts 296°
2026-04-21 17:03 56.26035 -5.95660 3951 ft 159 kts 296°
2026-04-21 17:04 56.26490 -5.97468 3952 ft 159 kts 297°
2026-04-21 17:04 56.26952 -5.99289 3952 ft 160 kts 297°
2026-04-21 17:04 56.27417 -6.01115 3949 ft 160 kts 297°
2026-04-21 17:04 56.27874 -6.02926 3951 ft 160 kts 297°
2026-04-21 17:05 56.28338 -6.04734 3950 ft 160 kts 297°
2026-04-21 17:05 56.28804 -6.06545 3951 ft 160 kts 297°
2026-04-21 17:05 56.29273 -6.08372 3947 ft 160 kts 297°
2026-04-21 17:05 56.29735 -6.10167 3948 ft 160 kts 297°
2026-04-21 17:06 56.30205 -6.11993 3948 ft 160 kts 297°
2026-04-21 17:06 56.30669 -6.13797 3948 ft 160 kts 297°
2026-04-21 17:06 56.31139 -6.15623 3950 ft 160 kts 297°
2026-04-21 17:06 56.31605 -6.17435 3948 ft 160 kts 297°
2026-04-21 17:07 56.31915 -6.18640 3948 ft 160 kts 297°
2026-04-21 17:07 56.32539 -6.21070 3951 ft 160 kts 297°
2026-04-21 17:07 56.33001 -6.22871 3951 ft 160 kts 297°
2026-04-21 17:07 56.33474 -6.24714 3951 ft 160 kts 297°
2026-04-21 17:08 56.33937 -6.26520 3951 ft 160 kts 297°
2026-04-21 17:08 56.34400 -6.28329 3952 ft 160 kts 297°
2026-04-21 17:08 56.34868 -6.30157 3953 ft 160 kts 297°
2026-04-21 17:08 56.35333 -6.31979 3954 ft 160 kts 297°
2026-04-21 17:09 56.36259 -6.35613 3954 ft 160 kts 297°
2026-04-21 17:09 56.36716 -6.37418 3957 ft 160 kts 297°
2026-04-21 17:09 56.37186 -6.39258 3957 ft 160 kts 297°
2026-04-21 17:10 56.37643 -6.41061 3961 ft 160 kts 297°
2026-04-21 17:10 56.38110 -6.42896 3961 ft 159 kts 297°
2026-04-21 17:10 56.38564 -6.44689 3965 ft 152 kts 297°
2026-04-21 17:10 56.38935 -6.46159 3949 ft 116 kts 298°
2026-04-21 17:11 56.39310 -6.47617 3965 ft 139 kts 298°
2026-04-21 17:11 56.39710 -6.49190 3958 ft 143 kts 297°
2026-04-21 17:11 56.40150 -6.50925 3955 ft 158 kts 297°
2026-04-21 17:11 56.40618 -6.52784 3952 ft 167 kts 297°
2026-04-21 17:12 56.41103 -6.54703 3951 ft 172 kts 297°
2026-04-21 17:12 56.41604 -6.56685 3950 ft 174 kts 297°
2026-04-21 17:12 56.42101 -6.58659 3954 ft 175 kts 297°
2026-04-21 17:12 56.42603 -6.60656 3959 ft 175 kts 297°
2026-04-21 17:13 56.43111 -6.62677 3964 ft 176 kts 297°
2026-04-21 17:13 56.43614 -6.64679 3963 ft 177 kts 297°
2026-04-21 17:13 56.44122 -6.66726 3955 ft 178 kts 296°
2026-04-21 17:13 56.44620 -6.68756 3954 ft 177 kts 295°
2026-04-21 17:14 56.45123 -6.70798 3951 ft 177 kts 295°
2026-04-21 17:14 56.45623 -6.72816 3959 ft 177 kts 296°
2026-04-21 17:14 56.46127 -6.74851 3960 ft 177 kts 296°
2026-04-21 17:14 56.46631 -6.76877 3958 ft 178 kts 296°
2026-04-21 17:15 56.47142 -6.78928 3957 ft 178 kts 296°
2026-04-21 17:15 56.47648 -6.80958 3957 ft 178 kts 296°
2026-04-21 17:15 56.48146 -6.82962 3957 ft 171 kts 296°
2026-04-21 17:15 56.48621 -6.84870 3959 ft 166 kts 296°
2026-04-21 17:16 56.49107 -6.86773 3957 ft 162 kts 302°
2026-04-21 17:16 56.49843 -6.88223 3962 ft 156 kts 322°
2026-04-21 17:16 56.50641 -6.89552 3964 ft 156 kts 323°
2026-04-21 17:16 56.51436 -6.90886 3966 ft 155 kts 322°
2026-04-21 17:17 56.52221 -6.92210 3968 ft 155 kts 322°
2026-04-21 17:17 56.53009 -6.93528 3969 ft 155 kts 322°
2026-04-21 17:17 56.53809 -6.94862 3970 ft 156 kts 322°
2026-04-21 17:17 56.54616 -6.96142 3970 ft 154 kts 330°
2026-04-21 17:18 56.55491 -6.97248 3971 ft 154 kts 331°
2026-04-21 17:18 56.56375 -6.98377 3971 ft 154 kts 330°
2026-04-21 17:18 56.57239 -6.99510 3971 ft 155 kts 329°
2026-04-21 17:18 56.58107 -7.00673 3972 ft 155 kts 329°
2026-04-21 17:19 56.58959 -7.01835 3972 ft 155 kts 328°
2026-04-21 17:19 56.59816 -7.03019 3970 ft 155 kts 328°
2026-04-21 17:19 56.60683 -7.04203 3970 ft 154 kts 331°
2026-04-21 17:19 56.61557 -7.05312 3971 ft 154 kts 331°
2026-04-21 17:20 56.62427 -7.06438 3971 ft 154 kts 330°
2026-04-21 17:20 56.63286 -7.07571 3977 ft 154 kts 330°
2026-04-21 17:20 56.64150 -7.08729 3969 ft 155 kts 329°
2026-04-21 17:20 56.65012 -7.09898 3967 ft 155 kts 329°
2026-04-21 17:21 56.65881 -7.11086 3974 ft 153 kts 329°
2026-04-21 17:21 56.66724 -7.12251 3826 ft 154 kts 328°
2026-04-21 17:21 56.67579 -7.13438 3690 ft 154 kts 328°
2026-04-21 17:21 56.68423 -7.14616 3559 ft 153 kts 328°
2026-04-21 17:22 56.68984 -7.15402 3471 ft 153 kts 328°
2026-04-21 17:22 56.70103 -7.16976 3297 ft 152 kts 328°
2026-04-21 17:22 56.70931 -7.18142 3167 ft 151 kts 328°
2026-04-21 17:22 56.71757 -7.19310 3043 ft 150 kts 328°
2026-04-21 17:23 56.72578 -7.20472 2907 ft 150 kts 328°
2026-04-21 17:23 56.73395 -7.21630 2774 ft 149 kts 328°
2026-04-21 17:23 56.74216 -7.22795 2646 ft 149 kts 328°
2026-04-21 17:23 56.75026 -7.23946 2526 ft 147 kts 327°
2026-04-21 17:24 56.75854 -7.25015 2386 ft 143 kts 343°
2026-04-21 17:24 56.76799 -7.25260 2275 ft 135 kts
2026-04-21 17:24 56.77707 -7.25289 2251 ft 128 kts
2026-04-21 17:24 56.78583 -7.25309 2248 ft 123 kts
2026-04-21 17:25 56.79418 -7.25327 2249 ft 119 kts
2026-04-21 17:25 56.80237 -7.25344 2253 ft 121 kts
2026-04-21 17:25 56.81152 -7.25351 2257 ft 137 kts
2026-04-21 17:25 56.82133 -7.25558 2252 ft 152 kts 343°
2026-04-21 17:26 56.82907 -7.26956 2258 ft 166 kts 302°
2026-04-21 17:26 56.83409 -7.28882 2250 ft 167 kts 310°
2026-04-21 17:26 56.84318 -7.30054 2261 ft 160 kts 340°
2026-04-21 17:26 56.85287 -7.31097 2265 ft 164 kts 330°
2026-04-21 17:27 56.86197 -7.32398 2266 ft 166 kts 324°
2026-04-21 17:27 56.87060 -7.33812 2263 ft 167 kts 321°
2026-04-21 17:27 56.87904 -7.35279 2264 ft 168 kts 321°
2026-04-21 17:27 56.88741 -7.36765 2264 ft 168 kts 320°
2026-04-21 17:28 56.89568 -7.38249 2265 ft 168 kts 320°
2026-04-21 17:28 56.90407 -7.39759 2266 ft 168 kts 320°
2026-04-21 17:28 56.91237 -7.41254 2268 ft 167 kts 320°
2026-04-21 17:28 56.92054 -7.42730 2267 ft 167 kts 320°
2026-04-21 17:29 56.92887 -7.44234 2265 ft 167 kts 320°
2026-04-21 17:29 56.93710 -7.45722 2265 ft 168 kts 320°
2026-04-21 17:29 56.94538 -7.47220 2267 ft 167 kts 320°
2026-04-21 17:29 56.95367 -7.48719 2265 ft 167 kts 320°
2026-04-21 17:30 56.96188 -7.50209 2263 ft 166 kts 320°
2026-04-21 17:30 56.97008 -7.51694 2268 ft 166 kts 319°
2026-04-21 17:30 56.97834 -7.53193 2270 ft 166 kts 320°
2026-04-21 17:30 56.98650 -7.54673 2273 ft 167 kts 320°
2026-04-21 17:31 56.99485 -7.56190 2274 ft 167 kts 320°
2026-04-21 17:31 57.00307 -7.57684 2278 ft 168 kts 320°
2026-04-21 17:31 57.01134 -7.59187 2281 ft 168 kts 320°
2026-04-21 17:31 57.01965 -7.60701 2283 ft 168 kts 320°
2026-04-21 17:32 57.02518 -7.61706 2283 ft 168 kts 320°
2026-04-21 17:32 57.03612 -7.63701 2280 ft 168 kts 320°
2026-04-21 17:32 57.04439 -7.65208 2280 ft 167 kts 319°
2026-04-21 17:32 57.05261 -7.66707 2278 ft 167 kts 319°
2026-04-21 17:33 57.06094 -7.68228 2277 ft 167 kts 319°
2026-04-21 17:33 57.06922 -7.69740 2273 ft 167 kts 319°
2026-04-21 17:33 57.07744 -7.71244 2273 ft 167 kts 319°
2026-04-21 17:33 57.08662 -7.72413 2132 ft 157 kts 348°
2026-04-21 17:34 57.09677 -7.72251 1781 ft 146 kts 31°
2026-04-21 17:34 57.10331 -7.70931 1455 ft 141 kts 62°
2026-04-21 17:34 57.10759 -7.69265 1363 ft 141 kts 66°
2026-04-21 17:34 57.11137 -7.67583 1292 ft 142 kts 68°
2026-04-21 17:35 57.11496 -7.65891 1225 ft 142 kts 68°
2026-04-21 17:35 57.11842 -7.64220 1213 ft 139 kts 68°
2026-04-21 17:35 57.12181 -7.62563 1218 ft 137 kts 68°
2026-04-21 17:35 57.12294 -7.60855 1213 ft 139 kts 101°
2026-04-21 17:36 57.11752 -7.59340 1251 ft 150 kts 129°
2026-04-21 17:36 57.11023 -7.58078 1582 ft 142 kts 133°
2026-04-21 17:36 57.10283 -7.56876 1561 ft 137 kts 133°
2026-04-21 17:36 57.09625 -7.55829 1554 ft 116 kts 133°
2026-04-21 17:37 57.09054 -7.54931 1554 ft 98 kts 131°
2026-04-21 17:37 57.08558 -7.54147 1466 ft 94 kts 131°
2026-04-21 17:37 57.08235 -7.53635 1414 ft 92 kts 131°
2026-04-21 17:37 57.07575 -7.52594 1235 ft 93 kts 131°
2026-04-21 17:38 57.07077 -7.51811 1094 ft 96 kts 131°
2026-04-21 17:38 57.06568 -7.51014 979 ft 97 kts 132°
2026-04-21 17:38 57.06049 -7.50201 859 ft 98 kts 132°
2026-04-21 17:38 57.05526 -7.49383 725 ft 99 kts 132°
2026-04-21 17:39 57.05004 -7.48565 598 ft 100 kts 132°
2026-04-21 17:39 57.04471 -7.47732 471 ft 100 kts 132°
2026-04-21 17:39 57.03946 -7.46913 340 ft 99 kts 131°
2026-04-21 17:39 57.03527 -7.46013 262 ft 89 kts 106°
2026-04-21 17:40 57.03186 -7.45157 247 ft 86 kts 142°
2026-04-21 17:40 57.02597 -7.44728 55 ft 92 kts 154°
2026-04-21 17:40 57.02194 -7.44474 4 ft 6 kts 167°
2026-04-21 17:40 57.02210 -7.44516 4 ft 10 kts 329°
2026-04-21 17:41 57.02284 -7.44581 4 ft 13 kts 338°
2026-04-21 17:41 57.02378 -7.44656 4 ft 15 kts 329°
2026-04-21 17:41 57.02461 -7.44763 5 ft 13 kts 334°
2026-04-21 17:41 57.02529 -7.44843 5 ft 9 kts 316°
2026-04-21 17:42 57.02546 -7.44873 6 ft 0 kts 314°
2026-04-21 17:42 57.02544 -7.44886 8 ft 2 kts 205°
2026-04-21 17:42 57.02542 -7.44891 9 ft 9 kts 123°
2026-04-21 17:42 57.02545 -7.44899 9 ft 0 kts 123°